Погода в Новом Девяткино

Россия / Санкт-Петербург и Ленинградская область     60°03′26″N   30°28′34″E
темп.,
°C
ветер,
м/с
пор.,
м/с
влажн.,
%
обл.,
%
осадки,
мм/ч
давл.,
гПа
погр.,
м
3 марта, ср
ср300:00−1зсз410880 0.0 1017423
03:00−1зсз512903 0.0 1017486
06:00−2з4109213 0.0 1015438
09:00−2з5119130 0.0 1015473
12:000з6118687 0.0 1012589
15:00+1з6138193 0.0 1010819
18:00+1з61381100 0.0 1006970
21:00+1з51292100 0.0 1005811
4 марта, чт
чт400:00−1сз31084100 0.0 1004644
03:00−3зсз387950 0.0 1004404
06:00−4зсз27820 0.0 1003347
09:00−5зсз26850 0.0 1003341
12:00−2сз237427 0.0 1003674
15:00−3ссз358562 0.3 1004483
18:00−4ссз3685100 0.6 1004631
21:00−4ссз378399 0.9 1005760
5 марта, пт
пт500:00−6сз278462 0.0 1006419
03:00−7сз268853 0.0 1007396
06:00−8сз268882 0.0 1008546
09:00−7сз358492 0.1 1009541
12:00−6сз2477100 0.1 1011669
15:00−5ссз2473100 0.2 1013742
18:00−6ссз2488100 0.3 1013387
21:00−7сз138999 0.4 1015139
6 марта, сб
сб600:00−8зсз258984 0.0 1016212
03:00−9з259245 0.0 1016165
06:00−9з26910 0.0 1015205
09:00−8зюз310830 0.0 1013484
12:00−4юз596739 0.0 10111002
15:00−4ююз7138670 0.3 1005928
18:00−3юз81689100 1.3 9991283
21:00−1зюз61497100 4.1 9941072
7 марта, вс
вс700:00−1зюз61397100 4.1 989916
03:000з71392100 8.3 984992
06:00−7з81563100 0.1 9821483
09:00−9з9169074 0.4 9821116
12:00−6зсз81488100 1.4 9831294
15:00−4ссз61191100 2.6 9861131
18:00−7с71388100 1.1 9911220
21:00−10с71385100 1.4 9971030